{"data":{"norad_id":65597,"epoch":"2026-09-20T22:00:03.000096Z","epoch_age_seconds":75893,"freshness":"FRESH","line1":"1 65597U 25207F   26263.91670139 -.00186328  00000+0 -58937-2 0  9996","line2":"2 65597  97.2851 326.3931 0001294  96.8461  78.6881 15.33544538  5591","mean_motion":15.33544538,"eccentricity":0.0001294,"inclination_deg":97.2851,"raan_deg":326.3931,"arg_perigee_deg":96.8461,"mean_anomaly_deg":78.6881,"bstar":-0.0058937,"rev_number":559,"period_min":93.900109473051,"perigee_km":464.36150154582,"apogee_km":466.13256933419,"semimajor_km":6843.38403544,"source":"CELESTRAK","updated_at":"2026-09-21T09:00:35.653751Z"}}